Snowfall_Accumulation
0.0 0.0 0.0 0.0 0.0 0.0 0.0 0.0 0.0 0.0 0.0 0.0 0.0 0.0 0.0 0.0 0.0 0.0 0.0 0.0 0.0 0.0 0.0 0.0 0.0 0.0 0.0 0.0 0.0 0.0 0.0 0.0 0.0 0.0 0.0 0.0 0.0 0.0 0.0 0.0 0.0 0.0 0.0
0.0 0.0 0.0 0.0 0.0 0.0 0.0 0.0 0.0 0.0 0.0 0.0 0.0 0.0 0.0 0.0 0.0 0.0 0.0 0.0 0.0 0.0 0.0 0.0 0.0 0.0 0.0 0.0 0.0 0.0 0.0 0.0 0.0 0.0 0.0 0.0 0.0 0.0 0.0 0.0 0.0 0.0 0.0
0.0 0.0 0.0 0.0 0.0 0.0 0.0 0.0 0.0 0.0 0.0 0.0 0.0 0.0 0.0 0.0 0.0 0.0 0.0 0.0 0.0 0.0 0.0 0.0 0.0 0.0 0.0 0.0 0.0 0.0 0.0 0.0 0.0 0.0 0.0 0.0 0.0 0.0 0.0 0.0 0.0 0.0 0.0
0.0 0.0 0.0 0.0 0.0 0.0 0.0 0.0 0.0 0.0 0.0 0.0 0.0 0.0 0.0 0.0 0.0 0.0 0.0 0.0 0.0 0.0 0.0 0.0 0.0 0.0 0.0 0.0 0.0 0.0 0.0 0.0 0.0 0.0 0.0 0.0 0.0 0.0 0.0 0.0 0.0 0.0 0.0
0.0 0.0 0.0 0.0 0.0 0.0 0.0 0.0 0.0 0.0 0.0 0.0 0.0 0.0 0.0 0.0 0.0 0.0 0.0 0.0 0.0 0.0 0.0 0.0 0.0 nan nan nan 0.0 0.0 0.0 0.0 0.0 0.0 0.0 0.0 0.0 0.0 0.0 0.0 0.0 0.0 0.0
0.0 0.0 0.0 0.0 0.0 0.0 0.0 0.0 0.0 0.0 0.0 0.0 0.0 0.0 0.0 0.0 nan nan 0.0 0.0 0.0 0.0 0.0 0.0 0.0 0.0 0.0 nan nan nan nan 0.3 0.1 0.1 0.0 0.0 0.0 0.0 0.0 0.0 0.0 0.0 0.1
0.0 0.0 0.0 0.0 0.0 0.0 0.0 0.0 0.0 0.0 0.0 0.0 0.0 0.0 0.0 0.0 nan nan nan 0.0 0.0 0.0 0.0 0.0 0.0 0.0 nan 0.0 nan nan nan nan 0.0 0.0 0.2 0.0 0.0 0.0 0.0 0.0 0.0 0.0 0.0
0.0 0.0 0.0 0.0 0.0 0.0 0.0 0.0 0.0 0.0 0.0 0.0 0.0 0.0 0.0 0.0 nan nan nan 0.0 0.1 0.0 0.0 0.0 0.0 0.0 0.0 0.0 0.1 0.1 0.0 0.0 0.0 0.0 0.0 0.0 0.0 0.0 0.0 0.0 0.0 0.1 0.2
0.0 0.0 0.0 0.0 0.0 0.0 0.0 0.0 0.0 0.0 0.0 0.0 0.0 0.0 0.0 0.0 nan nan 0.1 0.2 0.2 0.1 0.0 0.0 0.0 0.0 nan nan 0.3 0.7 0.1 0.0 nan nan nan nan nan nan nan 0.6 1.9 2.1 4.5
0.0 0.0 0.0 0.0 0.0 0.0 0.0 0.0 0.0 0.0 0.0 0.0 0.0 0.0 nan 0.2 nan nan nan 1.9 2.6 1.6 0.3 0.1 nan 0.0 nan nan 1.0 1.0 1.2 0.2 0.0 0.0 0.0 0.0 nan nan nan 0.0 0.4 1.9 1.7
0.0 0.0 0.0 0.0 0.0 0.0 0.0 0.0 0.0 0.0 0.0 0.4 0.9 0.3 0.2 0.2 0.2 nan nan 2.6 2.7 2.6 1.5 1.1 0.8 nan nan nan nan 1.3 0.8 0.1 0.2 0.4 0.0 0.0 0.0 0.0 0.0 0.0 0.0 0.5 1.4
0.0 0.0 0.0 0.0 0.0 0.0 0.0 0.0 0.0 0.0 0.1 0.5 5.8 1.9 1.4 1.0 nan nan nan nan nan 5.3 1.8 1.5 2.2 nan nan nan 0.9 nan nan 0.6 4.6 4.0 2.8 1.7 1.4 1.1 0.0 0.2 0.3 0.1 0.0
0.0 0.0 0.0 0.0 0.0 0.0 0.0 0.0 0.0 0.0 0.9 1.2 1.4 3.0 1.5 1.7 1.3 nan nan nan nan 4.7 3.9 3.3 nan nan nan 1.3 nan nan 0.5 4.4 5.2 5.8 3.2 1.7 1.2 0.4 0.3 0.8 0.4 0.2 0.1
0.0 0.0 0.0 0.0 0.0 0.0 0.0 0.0 0.0 0.9 1.6 1.5 2.2 1.8 1.7 1.7 2.6 1.9 2.7 2.6 nan 2.7 0.9 3.1 0.8 2.4 0.9 1.4 2.5 2.8 3.4 4.2 4.1 3.9 2.6 1.3 1.3 2.0 2.2 1.5 2.1 2.4 2.9
0.0 0.0 0.0 0.2 0.0 0.0 0.0 0.0 0.7 0.3 1.4 2.0 1.8 2.4 11.1 10.3 3.9 4.8 5.7 5.6 6.7 3.5 4.2 7.8 4.9 3.9 3.9 2.9 3.1 3.0 2.7 2.7 3.6 4.3 4.0 2.9 2.1 1.9 2.3 2.3 2.0 2.1 4.0
0.0 0.2 0.7 0.9 0.7 0.0 0.0 0.0 nan nan nan nan nan 5.7 10.6 nan nan nan nan nan nan nan 4.6 6.7 12.5 13.4 8.3 4.2 5.8 4.7 4.1 3.4 3.0 3.5 4.9 3.2 3.0 3.4 3.0 3.4 2.8 3.0 3.6
0.2 0.2 0.9 0.9 0.9 1.0 1.2 1.4 2.3 1.4 nan nan nan nan nan nan nan nan nan nan nan nan 7.0 7.3 15.0 17.0 10.2 3.7 4.1 4.1 5.7 5.4 2.5 3.8 4.7 5.5 5.4 4.1 4.9 4.1 4.8 4.3 4.7
0.3 0.2 1.2 1.1 1.1 1.6 2.6 2.8 3.1 4.5 7.4 6.3 nan nan nan nan nan nan nan nan 4.5 nan 4.1 7.0 10.2 10.7 5.3 3.6 3.8 4.8 5.4 7.3 7.4 5.9 7.6 10.3 11.9 8.1 7.3 4.6 4.0 6.0 4.3
0.4 1.1 2.5 3.8 3.8 3.5 4.2 4.3 3.9 4.7 5.1 4.7 3.9 1.7 2.8 nan nan nan nan 6.9 6.7 5.3 4.2 3.7 7.9 5.2 5.5 4.2 12.9 13.9 17.1 15.7 15.9 18.6 10.9 10.5 21.8 6.0 7.3 5.1 5.6 4.4 3.6
0.4 0.0 1.4 2.9 3.6 3.7 3.4 4.1 3.9 4.7 4.6 5.7 5.2 5.5 5.0 4.1 16.5 24.8 17.2 22.7 15.4 6.6 7.3 4.5 4.8 4.9 7.9 7.4 15.4 22.8 20.9 20.8 15.2 11.0 20.1 27.7 25.3 11.7 10.1 8.8 10.8 10.7 4.1
0.7 1.1 0.6 2.1 2.5 3.2 4.4 4.7 4.7 6.1 6.4 6.1 10.9 18.7 2.9 7.8 12.1 12.6 10.2 14.1 10.5 9.1 13.8 5.5 8.3 10.4 8.5 10.4 6.0 12.8 6.0 26.9 11.3 11.3 10.8 11.3 44.4 14.5 8.1 8.6 8.6 6.2 4.2
1.9 2.2 2.9 4.0 3.7 6.1 4.4 4.3 6.3 6.0 5.9 7.0 9.8 8.7 4.2 15.1 10.2 10.5 10.4 16.5 26.1 11.4 9.1 10.0 7.5 6.6 6.9 7.0 8.2 24.1 17.4 23.0 19.3 15.0 13.3 11.9 9.2 10.7 9.0 8.8 10.5 10.5 6.3
3.4 6.0 3.7 2.4 3.5 7.0 10.0 4.9 8.5 10.9 9.1 12.2 7.8 8.6 10.1 16.0 15.7 10.5 14.5 24.1 13.0 15.1 13.4 10.5 18.5 10.1 11.1 14.2 13.4 9.3 13.1 12.0 13.1 14.9 16.3 17.0 10.4 11.5 16.8 12.2 9.4 9.7 10.1
4.4 8.2 4.5 8.2 10.8 5.9 16.3 22.0 15.3 7.8 8.9 13.1 24.6 19.2 15.2 15.9 30.4 24.1 26.2 32.8 21.5 27.6 26.5 24.4 10.4 8.0 7.8 24.4 16.3 12.5 7.3 13.0 9.0 9.5 10.0 14.7 11.2 8.5 12.7 9.8 9.9 10.2 11.6
9.8 12.8 12.9 9.0 8.9 18.3 25.5 20.2 21.5 22.4 20.7 24.4 28.9 22.9 9.1 18.2 14.5 31.7 27.9 21.1 17.6 27.2 15.4 18.5 15.6 11.7 12.6 9.3 8.0 5.1 6.9 4.1 8.6 4.5 9.7 7.6 10.9 10.9 11.2 9.6 13.4 8.6 9.9
6.3 7.2 9.6 10.0 10.6 16.4 18.9 30.1 31.0 26.6 25.2 27.8 27.3 28.0 21.5 15.8 15.4 27.4 21.0 19.6 16.3 15.5 14.6 16.2 14.4 11.0 9.6 9.8 6.1 5.4 5.0 4.6 13.9 4.6 14.9 7.7 12.3 12.9 13.1 11.2 9.3 11.2 7.6
Water_Equivalent
0.00 0.00 0.00 0.00 0.00 0.00 0.00 0.00 0.00 0.00 0.00 0.00 0.00 0.00 0.00 0.00 0.00 0.00 0.00 0.00 0.00 0.00 0.00 0.00 0.00 0.00 0.00 0.00 0.00 0.00 0.00 0.00 0.00 0.00 0.00 0.00 0.00 0.00 0.00 0.00 0.00 0.00 0.00
0.00 0.00 0.00 0.00 0.00 0.00 0.00 0.00 0.00 0.00 0.00 0.00 0.00 0.00 0.00 0.00 0.00 0.00 0.00 0.00 0.00 0.00 0.00 0.00 0.00 0.00 0.00 0.00 0.00 0.00 0.00 0.00 0.00 0.00 0.00 0.00 0.00 0.00 0.00 0.00 0.00 0.00 0.00
0.00 0.00 0.00 0.00 0.00 0.00 0.00 0.00 0.00 0.00 0.00 0.00 0.00 0.00 0.00 0.00 0.00 0.00 0.00 0.00 0.00 0.00 0.00 0.00 0.00 0.00 0.00 0.00 0.00 0.00 0.00 0.00 0.00 0.00 0.00 0.00 0.00 0.00 0.00 0.00 0.00 0.00 0.00
0.00 0.00 0.00 0.00 0.00 0.00 0.00 0.00 0.00 0.00 0.00 0.00 0.00 0.00 0.00 0.00 0.00 0.00 0.00 0.00 0.00 0.00 0.00 0.00 0.00 0.00 0.00 0.00 0.00 0.00 0.00 0.00 0.00 0.00 0.00 0.00 0.00 0.00 0.00 0.00 0.00 0.00 0.00
0.00 0.00 0.00 0.00 0.00 0.00 0.00 0.00 0.00 0.00 0.00 0.00 0.00 0.00 0.00 0.00 0.00 0.00 0.00 0.00 0.00 0.00 0.00 0.00 0.00 nan nan nan 0.00 0.00 0.00 0.00 0.00 0.00 0.00 0.00 0.00 0.00 0.00 0.00 0.00 0.00 0.00
0.00 0.00 0.00 0.00 0.00 0.00 0.00 0.00 0.00 0.00 0.00 0.00 0.00 0.00 0.00 0.00 nan nan 0.00 0.00 0.00 0.00 0.00 0.00 0.00 0.00 0.00 nan nan nan nan 0.04 0.02 0.01 0.00 0.00 0.00 0.00 0.00 0.00 0.00 0.00 0.03
0.00 0.00 0.00 0.00 0.00 0.00 0.00 0.00 0.00 0.00 0.00 0.00 0.00 0.00 0.00 0.00 nan nan nan 0.00 0.00 0.00 0.00 0.00 0.00 0.00 nan 0.00 nan nan nan nan 0.00 0.01 0.02 0.00 0.00 0.00 0.00 0.00 0.00 0.01 0.00
0.00 0.00 0.00 0.00 0.00 0.00 0.00 0.00 0.00 0.00 0.00 0.00 0.00 0.00 0.00 0.00 nan nan nan 0.01 0.01 0.01 0.00 0.00 0.00 0.00 0.00 0.00 0.01 0.01 0.00 0.00 0.00 0.00 0.01 0.00 0.00 0.00 0.00 0.00 0.00 0.01 0.05
0.00 0.00 0.00 0.00 0.00 0.00 0.00 0.00 0.00 0.00 0.00 0.00 0.00 0.00 0.00 0.00 nan nan 0.02 0.04 0.04 0.02 0.00 0.00 0.00 0.00 nan nan 0.05 0.11 0.02 0.00 nan nan nan nan nan nan nan 0.11 0.33 0.35 0.73
0.00 0.00 0.00 0.00 0.00 0.00 0.01 0.00 0.00 0.00 0.00 0.00 0.00 0.00 nan 0.04 nan nan nan 0.34 0.39 0.27 0.05 0.02 nan 0.00 nan nan 0.16 0.16 0.18 0.03 0.00 0.00 0.00 0.00 nan nan nan 0.00 0.07 0.32 0.29
0.00 0.00 0.00 0.00 0.00 0.00 0.00 0.00 0.00 0.00 0.01 0.06 0.15 0.06 0.03 0.04 0.04 nan nan 0.41 0.43 0.38 0.24 0.20 0.15 nan nan nan nan 0.21 0.12 0.02 0.03 0.06 0.01 0.00 0.00 0.00 0.00 0.00 0.00 0.10 0.25
0.00 0.00 0.00 0.00 0.00 0.00 0.00 0.00 0.00 0.00 0.03 0.09 0.94 0.33 0.26 0.17 nan nan nan nan nan 0.79 0.28 0.25 0.36 nan nan nan 0.19 nan nan 0.10 0.75 0.64 0.46 0.29 0.24 0.21 0.01 0.03 0.04 0.01 0.00
0.00 0.00 0.00 0.00 0.00 0.00 0.00 0.00 0.00 0.00 0.15 0.20 0.25 0.49 0.26 0.30 0.23 nan nan nan nan 0.75 0.63 0.52 nan nan nan 0.43 nan nan 0.17 0.69 0.81 0.87 0.50 0.28 0.21 0.07 0.04 0.14 0.07 0.04 0.03
0.00 0.00 0.00 0.00 0.00 0.00 0.00 0.00 0.00 0.16 0.27 0.26 0.35 0.29 0.27 0.28 0.40 0.30 0.42 0.42 nan 0.43 0.22 0.50 0.27 0.45 0.29 0.33 0.47 0.48 0.57 0.67 0.63 0.60 0.40 0.22 0.22 0.36 0.39 0.27 0.37 0.40 0.48
0.00 0.00 0.00 0.03 0.00 0.00 0.00 0.00 0.13 0.06 0.24 0.34 0.30 0.37 1.30 1.21 0.53 0.65 0.76 0.75 0.87 0.50 0.70 1.11 0.66 0.50 0.50 0.42 0.49 0.47 0.44 0.43 0.56 0.69 0.64 0.47 0.37 0.32 0.40 0.42 0.35 0.35 0.62
0.00 0.03 0.12 0.16 0.14 0.00 0.00 0.00 nan nan nan nan nan 0.82 1.42 nan nan nan nan nan nan nan 0.60 0.82 1.49 1.62 0.96 0.52 0.73 0.64 0.59 0.54 0.45 0.54 0.79 0.52 0.50 0.59 0.50 0.57 0.49 0.49 0.53
0.03 0.03 0.16 0.17 0.17 0.19 0.22 0.24 0.34 0.26 nan nan nan nan nan nan nan nan nan nan nan nan 0.85 0.84 1.57 1.82 1.12 0.44 0.49 0.50 0.69 0.73 0.35 0.57 0.72 0.85 0.86 0.65 0.78 0.69 0.80 0.70 0.72
0.05 0.05 0.23 0.20 0.20 0.28 0.43 0.44 0.45 0.61 0.96 0.83 nan nan nan nan nan nan nan nan 0.53 nan 0.47 0.78 1.09 1.13 0.58 0.41 0.43 0.50 0.60 0.90 0.90 0.75 1.04 1.40 1.55 1.09 1.05 0.68 0.62 0.86 0.63
0.07 0.19 0.43 0.65 0.66 0.60 0.70 0.68 0.58 0.66 0.68 0.62 0.55 0.33 0.68 nan nan nan nan 0.82 0.73 0.59 0.47 0.42 0.90 0.58 0.59 0.46 1.36 1.48 1.84 1.70 1.74 2.19 1.34 1.31 2.91 0.85 0.98 0.74 0.80 0.76 0.68
0.07 0.01 0.27 0.51 0.62 0.65 0.58 0.64 0.54 0.64 0.62 0.71 0.64 0.64 0.54 0.55 1.81 2.72 1.86 2.60 1.67 0.74 0.82 0.50 0.55 0.58 0.86 0.76 1.65 2.53 2.32 2.32 1.66 1.24 2.25 3.34 3.12 1.41 1.17 1.00 1.26 1.24 0.55
0.13 0.20 0.18 0.38 0.43 0.53 0.71 0.70 0.64 0.78 0.83 0.77 1.29 2.16 0.97 0.80 1.24 1.29 1.04 1.45 1.06 0.92 1.44 0.62 0.95 1.21 1.05 1.25 0.69 1.39 0.65 3.04 1.22 1.22 1.17 1.24 5.42 1.59 0.94 1.01 1.12 0.80 0.56
0.33 0.38 0.52 0.69 0.63 0.97 0.70 0.65 0.87 0.78 0.76 0.90 1.18 1.12 1.38 1.59 1.04 1.07 1.06 1.75 2.89 1.18 0.93 1.10 0.80 0.71 0.77 0.81 0.94 2.78 1.88 2.54 2.11 1.60 1.40 1.26 1.06 1.23 1.01 1.04 1.18 1.20 0.81
0.62 1.04 0.62 0.41 0.58 2.09 1.42 0.73 1.08 1.41 1.16 1.56 0.99 1.02 1.15 1.68 1.64 1.06 1.50 2.63 1.35 1.59 1.41 1.10 1.98 1.05 1.22 1.54 1.55 1.09 1.38 1.25 1.39 1.61 1.74 1.82 1.08 1.25 1.88 1.34 1.07 1.11 1.12
0.78 1.40 0.74 1.35 1.70 0.92 1.98 2.65 1.82 2.38 1.19 1.71 2.99 2.32 1.83 1.87 3.50 2.70 2.87 3.71 2.32 3.07 2.93 2.68 1.07 0.81 0.80 2.69 1.75 1.38 0.84 1.44 1.11 1.08 1.25 1.57 1.21 1.26 1.45 1.11 1.13 1.10 1.25
1.64 2.14 2.12 1.44 1.42 2.64 3.32 2.45 2.59 2.98 2.73 3.22 3.58 2.84 1.16 2.28 1.73 3.99 3.17 2.30 1.86 3.00 1.62 1.97 1.64 1.22 1.31 0.95 0.82 0.52 0.91 1.34 1.34 1.48 1.12 0.90 1.23 1.17 1.16 1.10 1.46 1.07 1.08
1.09 1.23 1.59 1.60 1.68 2.49 2.57 3.51 3.54 3.17 2.98 3.54 3.58 3.69 2.78 1.97 1.91 3.44 2.39 2.12 1.72 1.62 1.57 1.71 1.53 1.14 0.99 1.02 0.62 1.61 1.66 1.51 1.62 1.52 1.73 0.97 1.36 1.40 1.37 1.20 1.01 1.24 0.86
SL_Ratio
nan nan nan nan nan nan nan nan nan nan nan nan nan nan nan nan nan nan nan nan nan nan nan nan nan nan nan nan nan nan nan nan 6.3 nan nan nan nan nan nan nan nan nan nan
nan nan nan nan nan nan nan nan nan nan nan nan nan nan nan nan nan nan nan nan nan nan nan nan nan nan nan nan nan nan nan nan nan nan nan nan nan nan nan nan nan nan nan
nan nan nan nan nan nan nan nan nan nan nan nan nan nan nan nan nan nan nan nan nan nan nan nan nan nan nan nan nan nan nan nan nan nan nan nan nan nan nan nan nan nan nan
nan nan nan nan nan nan nan nan nan nan nan nan nan nan nan nan nan nan nan nan nan nan nan nan nan nan nan nan nan 0.0 nan nan nan nan nan nan nan nan nan nan nan nan nan
nan nan nan nan nan nan nan nan nan nan nan nan nan nan nan nan nan nan nan nan nan nan nan nan nan nan nan nan 10.0 0.0 7.8 6.7 nan nan nan nan nan nan nan nan nan nan nan
nan nan nan nan nan nan nan nan nan nan nan nan nan nan nan nan nan nan nan nan nan nan nan nan nan nan nan nan nan nan nan 7.4 7.6 8.2 5.0 10.0 nan nan nan nan nan nan 4.2
nan nan nan nan nan nan nan nan nan nan nan nan nan nan nan nan nan nan nan nan nan nan nan nan nan nan nan nan nan nan nan nan 3.3 6.7 6.9 5.0 nan nan nan nan 5.0 5.0 5.0
nan nan nan nan nan nan nan nan nan nan nan nan nan nan nan nan nan nan nan 5.7 5.5 5.3 nan nan nan 10.0 10.0 5.0 7.3 7.8 nan nan nan nan 6.1 6.7 0.0 nan nan nan 6.7 6.7 4.8
nan nan nan nan nan nan nan 5.0 nan nan nan nan nan nan nan nan nan nan 5.6 5.5 5.6 5.6 nan nan 7.5 7.5 nan nan 6.1 6.4 5.7 nan nan nan nan nan nan nan nan 5.7 5.7 5.9 6.2
nan nan nan nan nan 3.3 2.8 nan nan nan nan 10.0 0.0 nan nan 5.6 nan nan nan 5.6 6.7 5.8 5.5 5.3 nan 7.1 nan nan 6.5 6.5 6.9 6.8 5.0 6.7 5.0 5.0 nan nan nan nan 5.5 6.0 5.7
nan nan nan nan nan nan nan nan nan nan 5.9 5.8 5.9 5.8 5.6 5.6 5.7 nan nan 6.2 6.3 6.7 5.9 5.7 5.5 nan nan nan nan 6.1 6.2 7.1 5.9 5.5 5.4 4.7 0.0 nan nan nan 10.0 5.1 5.5
nan nan nan nan nan nan nan nan nan 6.0 5.7 6.0 6.1 5.8 5.6 5.9 nan nan nan nan nan 6.7 6.5 6.0 6.1 nan nan nan 4.6 nan nan 5.7 6.1 6.3 6.1 5.9 5.6 5.4 7.1 6.7 6.7 7.2 5.0
nan nan nan nan nan nan nan nan nan 6.7 5.7 6.3 5.8 6.2 5.9 5.7 5.8 nan nan nan nan 6.2 6.2 6.5 nan nan nan 3.0 nan nan 3.0 6.4 6.4 6.7 6.3 6.1 5.9 6.3 6.6 5.7 5.8 5.2 3.8
nan nan nan nan nan nan nan nan nan 5.6 6.0 5.9 6.2 6.3 6.3 6.2 6.4 6.3 6.5 6.2 nan 6.4 4.0 6.3 3.0 5.3 3.0 4.4 5.2 6.0 6.1 6.3 6.5 6.6 6.4 6.0 5.7 5.6 5.7 5.6 5.8 6.0 6.2
nan nan nan 5.3 6.7 nan nan nan 5.5 5.5 5.9 6.0 6.0 6.4 8.5 8.5 7.4 7.5 7.5 7.4 7.7 6.9 6.0 7.0 7.5 7.8 7.7 6.8 6.4 6.2 6.2 6.1 6.4 6.3 6.3 6.2 5.7 5.9 5.8 5.5 5.7 6.2 6.5
4.3 5.3 5.3 5.4 5.4 nan nan nan nan nan nan nan nan 6.9 7.4 nan nan nan nan nan nan nan 7.6 8.2 8.4 8.3 8.7 8.1 7.9 7.3 7.0 6.3 6.7 6.4 6.2 6.1 6.0 5.8 6.0 5.9 5.7 6.2 6.8
5.6 5.6 5.4 5.2 5.4 5.5 5.6 5.8 6.7 5.6 nan nan nan nan nan nan nan nan nan nan nan nan 8.2 8.7 9.6 9.3 9.1 8.5 8.4 8.2 8.3 7.5 7.3 6.7 6.4 6.5 6.3 6.3 6.3 6.0 6.0 6.2 6.6
5.7 3.0 5.5 5.5 5.6 5.7 6.1 6.4 6.9 7.4 7.7 7.6 nan nan nan nan nan nan nan nan 8.5 nan 8.5 9.0 9.4 9.5 9.2 8.7 8.8 9.6 9.0 8.2 8.2 8.0 7.3 7.3 7.6 7.5 6.9 6.8 6.4 7.0 6.8
5.3 5.4 5.7 5.8 5.8 5.9 6.0 6.4 6.7 7.1 7.5 7.6 7.1 5.1 4.1 nan nan nan nan 8.5 9.2 9.0 9.0 8.9 8.8 9.0 9.3 9.1 9.5 9.4 9.2 9.3 9.1 8.5 8.1 8.0 7.5 7.0 7.4 6.8 7.1 5.8 5.4
5.3 4.6 5.0 5.6 5.7 5.7 5.9 6.5 7.2 7.4 7.5 7.9 8.2 8.5 9.3 7.3 9.1 9.1 9.3 8.7 9.2 9.0 8.9 9.0 8.6 8.4 9.1 9.7 9.3 9.0 9.0 9.0 9.1 8.9 8.9 8.3 8.1 8.3 8.6 8.8 8.6 8.6 7.4
5.4 5.4 3.0 5.6 5.7 6.0 6.2 6.7 7.4 7.7 7.7 8.0 8.4 8.6 3.0 9.8 9.7 9.7 9.9 9.7 9.9 9.9 9.6 8.9 8.7 8.6 8.1 8.3 8.6 9.2 9.3 8.9 9.3 9.3 9.2 9.1 8.2 9.1 8.6 8.5 7.7 7.7 7.5
5.6 5.7 5.6 5.8 5.9 6.3 6.3 6.6 7.3 7.6 7.8 7.8 8.3 7.8 3.0 9.5 9.8 9.8 9.8 9.4 9.1 9.7 9.8 9.1 9.4 9.3 9.0 8.7 8.7 8.7 9.3 9.1 9.1 9.4 9.5 9.5 8.7 8.7 8.9 8.4 8.9 8.7 7.7
5.5 5.8 5.9 5.9 6.1 3.3 7.0 6.7 7.8 7.8 7.9 7.8 7.9 8.5 8.8 9.5 9.6 9.9 9.7 9.2 9.6 9.5 9.5 9.6 9.3 9.7 9.1 9.2 8.7 8.6 9.5 9.5 9.5 9.3 9.4 9.3 9.6 9.2 8.9 9.1 8.8 8.7 9.1
5.6 5.9 6.0 6.0 6.4 6.4 8.2 8.3 8.4 3.3 7.5 7.7 8.2 8.3 8.3 8.5 8.7 9.0 9.1 8.8 9.2 9.0 9.0 9.1 9.7 9.8 9.7 9.1 9.3 9.1 8.7 9.0 8.2 8.8 8.0 9.4 9.2 6.7 8.7 8.8 8.7 9.3 9.3
6.0 6.0 6.1 6.2 6.3 6.9 7.7 8.3 8.3 7.5 7.6 7.6 8.1 8.0 7.9 8.0 8.4 8.0 8.8 9.1 9.4 9.1 9.5 9.4 9.5 9.6 9.6 9.7 9.8 9.8 7.6 3.0 6.4 3.0 8.7 8.5 8.8 9.3 9.6 8.7 9.2 8.0 9.2
5.8 5.8 6.0 6.3 6.3 6.6 7.3 8.6 8.7 8.4 8.4 7.9 7.6 7.6 7.7 8.0 8.0 8.0 8.8 9.3 9.5 9.5 9.3 9.5 9.4 9.7 9.7 9.7 9.8 3.4 3.0 3.0 8.6 3.0 8.6 7.9 9.0 9.2 9.6 9.3 9.3 9.0 8.8